sat.trackr.live / text

‹ back to catalog

STARLINK-37322

NORAD 68715 · 2026-081S

PAYLOAD ACTIVE UNKNOWN

§ Identity

Operator
Country
US
Launch date
2026-04-14
Launch site
AFETR
Launch vehicle
Mass (kg)
RCS (m²)

Purposes: comms

External: N2YO · Heavens-Above · Gunter

§ Orbital elements

Epoch: 2026-05-25T04:00:03.998880Z

Period
93.42 min
Inclination
53.1598°
Eccentricity
0.0001490
Mean motion
15.41343591 rev/d
Perigee alt
441.1 km
Apogee alt
443.2 km
Semi-major
6,820.3 km
B*
-5.0484e-2
RAAN
38.9061°
Arg perigee
94.3320°
Mean anomaly
175.8141°
Rev number
601

§ Raw data

STARLINK-373221 68715U 26081S   26145.16671295 -.01914878  00000+0 -50484-1 0  99902 68715  53.1598  38.9061 0001490  94.3320 175.8141 15.41343591  6012

JSON: /api/v1/satellites/68715 · /tle

For live sub-satellite position, see the globe view (requires WebGL).

§ Visibility from observer

Set your observer location to see the next 7 days of passes ≥ 10°. The values pass through the URL so the page stays shareable.

No JS? Fill the form by hand. The geolocation button needs JavaScript.